| time (UTC) | temp F | wind direction | speed MPH | gust MPH | rain 1hr in | rain 24hr in | rain mn in | humidity % | barometer mb |
| 20260906210105 | 78 | 57 | 5.0 | 11.0 | 0.00 | 0.00 | 0.00 | 77 | 1014.5 |
| 20260906204644 | 79 | 84 | 7.0 | 13.0 | 0.00 | 0.00 | 0.00 | 76 | 1013.7 |
| 20260906203108 | 79 | 87 | 7.0 | 16.0 | 0.00 | 0.00 | 0.00 | 77 | 1013.7 |
| 20260906201646 | 79 | 83 | 9.0 | 18.0 | 0.00 | 0.00 | 0.00 | 75 | 1013.5 |
| 20260906200105 | 78 | 90 | 9.0 | 18.0 | 0.00 | 0.00 | 0.00 | 77 | 1013.8 |
| 20260906194607 | 79 | 119 | 14.0 | 20.0 | 0.00 | 0.00 | 0.00 | 78 | 1014.0 |
| 20260906193110 | 79 | 116 | 12.0 | 19.0 | 0.00 | 0.00 | 0.00 | 74 | 1014.4 |
| 20260906191622 | 80 | 153 | 15.0 | 21.0 | 0.00 | 0.00 | 0.00 | 76 | 1014.6 |
| 20260906190109 | 79 | 130 | 8.0 | 14.0 | 0.00 | 0.00 | 0.00 | 77 | 1014.4 |
| 20260906184609 | 78 | 122 | 7.0 | 13.0 | 0.00 | 0.00 | 0.00 | 78 | 1014.1 |
| 20260906183104 | 79 | 118 | 10.0 | 18.0 | 0.00 | 0.00 | 0.00 | 76 | 1014.0 |
| 20260906181607 | 79 | 138 | 12.0 | 18.0 | 0.00 | 0.00 | 0.00 | 77 | 1014.4 |
| 20260906180104 | 78 | 136 | 10.0 | 20.0 | 0.00 | 0.00 | 0.00 | 79 | 1014.9 |
| 20260906174617 | 77 | 108 | 9.0 | 18.0 | 0.00 | 0.00 | 0.00 | 79 | 1014.9 |
| 20260906173109 | 77 | 101 | 10.0 | 19.0 | 0.00 | 0.00 | 0.00 | 77 | 1015.0 |
| 20260906171606 | 77 | 87 | 11.0 | 19.0 | 0.00 | 0.00 | 0.00 | 77 | 1015.0 |
| 20260906170114 | 77 | 53 | 11.0 | 20.0 | 0.00 | 0.00 | 0.00 | 79 | 1015.5 |
| 20260906164604 | 76 | 87 | 9.0 | 17.0 | 0.00 | 0.00 | 0.00 | 81 | 1015.6 |
| 20260906163105 | 75 | 97 | 9.0 | 16.0 | 0.00 | 0.00 | 0.00 | 82 | 1015.8 |
| 20260906161607 | 74 | 71 | 10.0 | 20.0 | 0.00 | 0.00 | 0.00 | 84 | 1015.5 |
| 20260906160107 | 73 | 98 | 10.0 | 20.0 | 0.00 | 0.00 | 0.00 | 86 | 1015.3 |
| 20260906154614 | 72 | 97 | 11.0 | 20.0 | 0.00 | 0.00 | 0.00 | 85 | 1015.5 |
| 20260906153125 | 72 | 119 | 10.0 | 18.0 | 0.00 | 0.00 | 0.00 | 86 | 1016.0 |
| 20260906151606 | 71 | 100 | 9.0 | 16.0 | 0.00 | 0.00 | 0.00 | 87 | 1016.5 |
| 20260906150106 | 71 | 88 | 8.0 | 15.0 | 0.00 | 0.00 | 0.00 | 87 | 1016.5 |
| 20260906144617 | 71 | 97 | 8.0 | 13.0 | 0.00 | 0.00 | 0.00 | 89 | 1016.5 |
| 20260906143108 | 69 | 104 | 7.0 | 13.0 | 0.00 | 0.00 | 0.00 | 91 | 1016.6 |
| 20260906141618 | 68 | 102 | 6.0 | 12.0 | 0.00 | 0.00 | 0.00 | 92 | 1016.6 |
| 20260906140111 | 68 | 88 | 7.0 | 14.0 | 0.00 | 0.00 | 0.00 | 93 | 1016.6 |
| 20260906134634 | 67 | 88 | 6.0 | 14.0 | 0.00 | 0.00 | 0.00 | 94 | 1016.2 |
| 20260906133109 | 67 | 89 | 7.0 | 15.0 | 0.00 | 0.00 | 0.00 | 94 | 1016.2 |
| 20260906131606 | 66 | 87 | 6.0 | 11.0 | 0.00 | 0.00 | 0.00 | 95 | 1016.3 |
| 20260906130108 | 65 | 85 | 5.0 | 8.0 | 0.00 | 0.00 | 0.00 | 95 | 1016.5 |
| 20260906124610 | 65 | 85 | 4.0 | 9.0 | 0.00 | 0.01 | 0.00 | 95 | 1016.6 |
| 20260906123113 | 64 | 85 | 4.0 | 10.0 | 0.00 | 0.01 | 0.00 | 94 | 1016.4 |
| 20260906121607 | 64 | 85 | 6.0 | 11.0 | 0.00 | 0.01 | 0.00 | 94 | 1016.3 |
| 20260906120109 | 64 | 85 | 7.0 | 10.0 | 0.00 | 0.01 | 0.00 | 93 | 1016.5 |
| 20260906114629 | 65 | 85 | 5.0 | 9.0 | 0.00 | 0.08 | 0.00 | 93 | 1016.5 |
| 20260906113104 | 66 | 85 | 6.0 | 10.0 | 0.00 | 0.08 | 0.00 | 92 | 1016.4 |
| 20260906111626 | 68 | 85 | 3.0 | 10.0 | 0.00 | 0.08 | 0.00 | 92 | 1016.0 |
| 20260906104607 | 68 | 122 | 3.0 | 7.0 | 0.00 | 0.57 | 0.00 | 92 | 1015.6 |
| 20260906103111 | 68 | 122 | 4.0 | 7.0 | 0.00 | 0.57 | 0.00 | 92 | 1015.8 |
| 20260906101604 | 68 | 122 | 3.0 | 8.0 | 0.00 | 0.57 | 0.00 | 93 | 1015.8 |
| 20260906094604 | 68 | 122 | 3.0 | 7.0 | 0.00 | 0.89 | 0.00 | 93 | 1015.8 |
| 20260906093109 | 68 | 122 | 3.0 | 7.0 | 0.00 | 0.89 | 0.00 | 93 | 1015.5 |
| 20260906091612 | 68 | 122 | 4.0 | 9.0 | 0.00 | 0.89 | 0.00 | 92 | 1015.5 |
| 20260906090116 | 67 | 121 | 4.0 | 8.0 | 0.00 | 0.89 | 0.00 | 92 | 1015.7 |
| 20260906084613 | 67 | 121 | 3.0 | 8.0 | 0.00 | 0.89 | 0.00 | 91 | 1015.8 |
| 20260906083106 | 67 | 121 | 3.0 | 8.0 | 0.00 | 0.89 | 0.00 | 91 | 1016.0 |
| 20260906081609 | 67 | 121 | 3.0 | 8.0 | 0.00 | 0.89 | 0.00 | 91 | 1016.0 |
| 20260906080104 | 67 | 121 | 3.0 | 6.0 | 0.00 | 0.89 | 0.00 | 91 | 1016.1 |
| 20260906074612 | 67 | 121 | 2.0 | 6.0 | 0.00 | 0.89 | 0.00 | 91 | 1016.2 |
| 20260906073110 | 66 | 121 | 3.0 | 8.0 | 0.00 | 0.89 | 0.00 | 91 | 1016.3 |
| 20260906071609 | 66 | 121 | 3.0 | 6.0 | 0.00 | 0.89 | 0.00 | 91 | 1016.5 |
| 20260906070135 | 65 | 121 | 2.0 | 7.0 | 0.00 | 0.89 | 0.00 | 91 | 1016.4 |
| 20260906064602 | 65 | 121 | 3.0 | 7.0 | 0.00 | 0.89 | 0.00 | 91 | 1016.3 |
| 20260906063108 | 65 | 121 | 2.0 | 7.0 | 0.00 | 0.89 | 0.00 | 90 | 1016.2 |
| 20260906061635 | 65 | 121 | 2.0 | 7.0 | 0.00 | 0.89 | 0.00 | 89 | 1016.4 |
| 20260906060109 | 65 | 121 | 2.0 | 4.0 | 0.00 | 0.89 | 0.00 | 89 | 1016.2 |
| 20260906054606 | 66 | 121 | 2.0 | 7.0 | 0.00 | 0.89 | 0.00 | 88 | 1016.0 |
| 20260906053104 | 66 | 121 | 5.0 | 9.0 | 0.00 | 0.89 | 0.00 | 88 | 1016.1 |
| 20260906051606 | 66 | 121 | 4.0 | 8.0 | 0.00 | 0.89 | 0.00 | 88 | 1016.0 |
| 20260906050116 | 66 | 121 | 2.0 | 6.0 | 0.00 | 0.89 | 0.00 | 88 | 1015.8 |
| 20260906044603 | 67 | 121 | 2.0 | 6.0 | 0.00 | 0.89 | 0.89 | 88 | 1015.9 |
| 20260906043112 | 67 | 121 | 1.0 | 7.0 | 0.00 | 0.89 | 0.89 | 88 | 1016.0 |
| 20260906041608 | 67 | 121 | 2.0 | 6.0 | 0.00 | 0.89 | 0.89 | 87 | 1016.0 |
| 20260906040120 | 67 | 121 | 2.0 | 8.0 | 0.00 | 0.89 | 0.89 | 87 | 1016.1 |
| 20260906034605 | 67 | 121 | 3.0 | 8.0 | 0.00 | 0.89 | 0.89 | 88 | 1016.3 |
| 20260906033104 | 67 | 121 | 2.0 | 7.0 | 0.00 | 0.89 | 0.89 | 88 | 1016.3 |
| 20260906031612 | 67 | 121 | 3.0 | 8.0 | 0.00 | 0.89 | 0.89 | 89 | 1016.2 |
| 20260906030110 | 67 | 121 | 2.0 | 8.0 | 0.00 | 0.89 | 0.89 | 90 | 1016.1 |
| 20260906024607 | 67 | 121 | 1.0 | 6.0 | 0.00 | 0.89 | 0.89 | 89 | 1016.4 |
| 20260906023132 | 68 | 122 | 2.0 | 8.0 | 0.00 | 0.89 | 0.89 | 88 | 1016.2 |
| 20260906021608 | 68 | 122 | 3.0 | 6.0 | 0.00 | 0.89 | 0.89 | 88 | 1016.1 |
| 20260906020107 | 69 | 122 | 3.0 | 8.0 | 0.00 | 0.89 | 0.89 | 87 | 1016.1 |
| 20260906014629 | 69 | 122 | 1.0 | 4.0 | 0.00 | 0.89 | 0.89 | 87 | 1015.8 |
| 20260906013107 | 69 | 122 | 1.0 | 6.0 | 0.00 | 0.89 | 0.89 | 86 | 1015.7 |
| 20260906011605 | 70 | 122 | 4.0 | 8.0 | 0.00 | 0.89 | 0.89 | 84 | 1015.8 |
| 20260906010107 | 71 | 122 | 4.0 | 7.0 | 0.00 | 0.89 | 0.89 | 82 | 1015.6 |
| 20260906004614 | 72 | 122 | 3.0 | 8.0 | 0.00 | 0.89 | 0.89 | 80 | 1015.4 |
| 20260906003109 | 73 | 122 | 5.0 | 11.0 | 0.00 | 0.89 | 0.89 | 77 | 1015.3 |
| 20260906001605 | 74 | 122 | 6.0 | 14.0 | 0.00 | 0.89 | 0.89 | 74 | 1015.1 |
| 20260906000111 | 74 | 121 | 8.0 | 13.0 | 0.00 | 0.89 | 0.89 | 74 | 1015.0 |
| 20260905234606 | 74 | 115 | 4.0 | 10.0 | 0.00 | 0.89 | 0.89 | 73 | 1014.7 |
| 20260905233111 | 74 | 116 | 3.0 | 8.0 | 0.00 | 0.89 | 0.89 | 76 | 1014.9 |
| 20260905231607 | 74 | 117 | 7.0 | 11.0 | 0.00 | 0.89 | 0.89 | 78 | 1014.9 |
| 20260905230110 | 74 | 117 | 4.0 | 8.0 | 0.00 | 0.89 | 0.89 | 79 | 1015.0 |
| 20260905224609 | 74 | 117 | 3.0 | 9.0 | 0.00 | 0.89 | 0.89 | 78 | 1014.9 |
| 20260905223107 | 73 | 117 | 4.0 | 9.0 | 0.00 | 0.89 | 0.89 | 81 | 1015.0 |
| 20260905221608 | 73 | 117 | 5.0 | 10.0 | 0.00 | 0.89 | 0.89 | 82 | 1015.1 |
| 20260905220123 | 74 | 117 | 1.0 | 6.0 | 0.00 | 0.89 | 0.89 | 82 | 1014.8 |
| 20260905214606 | 73 | 117 | 0.0 | 6.0 | 0.00 | 0.89 | 0.89 | 82 | 1014.9 |
| 20260905213108 | 73 | 117 | 3.0 | 6.0 | 0.00 | 0.89 | 0.89 | 77 | 1014.7 |
| 20260905211610 | 74 | 0 | 0.0 | 2.0 | 0.00 | 0.89 | 0.89 | 75 | 1014.6 |